Flag for Canada Weather past 2 weeks in Oshawa, Ontario, Canada

Now
68 °F

Partly sunny.


Feels Like: 68 °F
Forecast: 57 / 74 °F
Wind: 9 mph from Southeast

Location: Toronto Buttonville

Current Time: May 29, 2015 at 9:22:50 PM

Latest Report: May 29, 2015 at 9:00 PM


Visibility: 15 mi

Pressure: 30.04 "Hg

Humidity: 60%

Dew point: 54 °F

Location of OshawaLocation

Historic Weather in Oshawa — Graph

°F

Oshawa temperature yesterday

Maximum temperature yesterday: 77 °F (at 3:00 PM)
Minimum temperature yesterday: 57 °F (at 5:47 AM)
Average temperature yesterday: 68 °F

Past Weeks' High & Low Weather Summary

 TemperatureHumidityPressure
High82 °F (May 18, 2:00 PM)88% (May 16, 5:00 AM)30.42 "Hg (May 16, 5:00 AM)
Low37 °F (May 20, 6:00 AM)19% (May 23, 4:00 PM)29.83 "Hg (May 21, 5:00 PM)
Average63 °F56%30.08 "Hg
* Reported May 14 8:00 PM — May 29 8:00 PM, Oshawa, Weather by CustomWeather, © 2015

Note: Actual official high and low records may vary slightly from our data, if they occured in-between our weather recording intervals... More about our weather records

Advertising

Oshawa weather history for previous 24 hours

 ConditionsComfort  
Time TempWeatherWind HumidityBarometerVisibility
8:00 PM
Fri, May 29
70 °FPartly sunny.9 mph57%30.06 "Hg15 mi
7:00 PM70 °FBroken clouds.12 mph57%30.07 "Hg14 mi
6:00 PM72 °FPartly sunny.13 mph53%30.09 "Hg14 mi
5:00 PM75 °FBroken clouds.13 mph44%30.12 "Hg15 mi
4:00 PM75 °FScattered clouds.10 mph47%30.14 "Hg14 mi
3:00 PM77 °FPartly sunny.12 mph44%30.16 "Hg12 mi
2:00 PM77 °FPleasantly warm.7 mph39%30.18 "HgN/A
1:00 PM79 °FPleasantly warm.6 mph32%30.19 "HgN/A
12:00 PM75 °FOvercast.10 mph39%30.19 "Hg14 mi
11:00 AM73 °FMild.6 mph47%30.22 "HgN/A
10:00 AM72 °FHigh level clouds.6 mph53%30.23 "Hg13 mi
9:00 AM66 °FOvercast.8 mph64%30.24 "Hg12 mi
8:00 AM63 °FOvercast.6 mph68%30.25 "Hg12 mi
7:00 AM59 °FPartly sunny.2 mph77%30.26 "Hg15 mi
6:00 AM55 °FPassing clouds.2 mph88%30.25 "Hg15 mi
5:00 AM57 °FPassing clouds.3 mph82%30.25 "Hg15 mi
4:00 AM57 °FPassing clouds.2 mph82%30.24 "Hg15 mi
3:00 AM59 °FPassing clouds.3 mph77%30.24 "Hg15 mi
2:00 AM61 °FPassing clouds.2 mph77%30.25 "Hg15 mi
1:00 AM64 °FPassing clouds.2 mph68%30.25 "Hg15 mi
12:00 AM66 °FClear.2 mph64%30.26 "Hg15 mi
11:00 PM
Thu, May 28
68 °FPassing clouds.3 mph60%30.27 "Hg15 mi
10:00 PM70 °FPassing clouds.6 mph57%30.25 "Hg15 mi
9:00 PM72 °FScattered clouds.5 mph53%30.24 "Hg15 mi
Weather by CustomWeather, © 2015

See weather overviewHow to use our weather pages